UAL790 KSFO-KEUG

Flight info

Callsign UAL790
Flight time 1h 4m
Altitude 36000
Route TRUKN2 GRTFL CURTI
Aircraft A319/M-SDE3FGHIRWY/LB1

Departure

Time 2026-04-20 15:23
Airport San Francisco International Airport (KSFO)

Arrival

Time 2026-04-20 16:28
Airport Eugene Airport (KEUG)
Time Latitude Longitude Altitude Speed Heading
2026-04-20 14:52 37.61962 -122.38482 24 ft 0 kts 138°
2026-04-20 15:12 37.61965 -122.38486 4 ft 3 kts 138°
2026-04-20 15:12 37.61986 -122.38508 22 ft 3 kts 142°
2026-04-20 15:12 37.62000 -122.38525 25 ft 4 kts 96°
2026-04-20 15:13 37.61991 -122.38545 26 ft 4 kts 30°
2026-04-20 15:13 37.61989 -122.38547 26 ft 4 kts 28°
2026-04-20 15:13 37.62013 -122.38531 22 ft 4 kts 28°
2026-04-20 15:13 37.62028 -122.38521 25 ft 0 kts 28°
2026-04-20 15:18 37.62032 -122.38518 23 ft 3 kts 28°
2026-04-20 15:19 37.62063 -122.38503 24 ft 6 kts 11°
2026-04-20 15:19 37.62104 -122.38533 23 ft 8 kts 302°
2026-04-20 15:19 37.62135 -122.38608 22 ft 11 kts 303°
2026-04-20 15:19 37.62205 -122.38631 24 ft 12 kts 359°
2026-04-20 15:20 37.62251 -122.38705 22 ft 12 kts 301°
2026-04-20 15:20 37.62291 -122.38806 23 ft 14 kts 297°
2026-04-20 15:20 37.62339 -122.38922 23 ft 16 kts 298°
2026-04-20 15:20 37.62395 -122.39052 22 ft 17 kts 298°
2026-04-20 15:21 37.62456 -122.39192 22 ft 19 kts 298°
2026-04-20 15:21 37.62512 -122.39325 22 ft 11 kts 297°
2026-04-20 15:21 37.62525 -122.39356 23 ft 0 kts 301°
2026-04-20 15:21 37.62536 -122.39362 22 ft 3 kts 340°
2026-04-20 15:22 37.62558 -122.39348 22 ft 5 kts 36°
2026-04-20 15:22 37.62599 -122.39309 22 ft 8 kts 40°
2026-04-20 15:22 37.62601 -122.39246 25 ft 7 kts 117°
2026-04-20 15:22 37.62571 -122.39172 24 ft 20 kts 117°
2026-04-20 15:23 37.62408 -122.38784 22 ft 79 kts 118°
2026-04-20 15:23 37.62068 -122.37973 22 ft 132 kts 118°
2026-04-20 15:23 37.61588 -122.36825 323 ft 154 kts 120°
2026-04-20 15:23 37.61075 -122.35582 929 ft 164 kts 122°
2026-04-20 15:24 37.60523 -122.34284 1586 ft 172 kts 122°
2026-04-20 15:24 37.59928 -122.32884 2045 ft 190 kts 119°
2026-04-20 15:24 37.59326 -122.31263 2437 ft 217 kts 118°
2026-04-20 15:24 37.58652 -122.29442 2997 ft 241 kts 119°
2026-04-20 15:25 37.57939 -122.27512 3895 ft 250 kts 120°
2026-04-20 15:25 37.57198 -122.25494 4918 ft 256 kts 120°
2026-04-20 15:25 37.56442 -122.23440 5885 ft 261 kts 121°
2026-04-20 15:25 37.55671 -122.21347 6832 ft 265 kts 121°
2026-04-20 15:26 37.54890 -122.19228 7788 ft 268 kts 121°
2026-04-20 15:26 37.54384 -122.16913 8703 ft 284 kts 101°
2026-04-20 15:26 37.54637 -122.14380 9624 ft 304 kts 77°
2026-04-20 15:26 37.55786 -122.12047 10405 ft 328 kts 52°
2026-04-20 15:27 37.57487 -122.09947 10828 ft 354 kts 47°
2026-04-20 15:27 37.59347 -122.07803 11361 ft 369 kts 45°
2026-04-20 15:27 37.61258 -122.05659 12050 ft 375 kts 44°
2026-04-20 15:27 37.63222 -122.03465 12809 ft 379 kts 44°
2026-04-20 15:28 37.65200 -122.01234 13585 ft 384 kts 44°
2026-04-20 15:28 37.67170 -121.98988 14248 ft 388 kts 45°
2026-04-20 15:28 37.69178 -121.96678 14876 ft 393 kts 44°
2026-04-20 15:28 37.71408 -121.94621 15472 ft 401 kts 30°
2026-04-20 15:29 37.74001 -121.93238 16089 ft 407 kts 15°
2026-04-20 15:29 37.76798 -121.92650 16719 ft 409 kts 360°
2026-04-20 15:29 37.79631 -121.92894 17346 ft 408 kts 345°
2026-04-20 15:29 37.82332 -121.93959 17975 ft 405 kts 331°
2026-04-20 15:30 37.84925 -121.95394 18572 ft 409 kts 330°
2026-04-20 15:30 37.87542 -121.96839 19122 ft 413 kts 330°
2026-04-20 15:30 37.90187 -121.98292 19685 ft 417 kts 330°
2026-04-20 15:30 37.92868 -121.99759 20256 ft 421 kts 330°
2026-04-20 15:31 37.95541 -122.01224 20819 ft 425 kts 329°
2026-04-20 15:31 37.98266 -122.02718 21418 ft 429 kts 329°
2026-04-20 15:31 38.01020 -122.04229 21974 ft 433 kts 329°
2026-04-20 15:31 38.03795 -122.05757 22520 ft 437 kts 329°
2026-04-20 15:32 38.06605 -122.07308 23052 ft 441 kts 328°
2026-04-20 15:32 38.09440 -122.08871 23537 ft 446 kts 329°
2026-04-20 15:32 38.12305 -122.10452 23939 ft 449 kts 329°
2026-04-20 15:32 38.15178 -122.12038 24377 ft 452 kts 328°
2026-04-20 15:33 38.18064 -122.13635 24829 ft 453 kts 328°
2026-04-20 15:33 38.20963 -122.15239 25294 ft 455 kts 328°
2026-04-20 15:33 38.23834 -122.16830 25746 ft 456 kts 328°
2026-04-20 15:33 38.26751 -122.18450 26185 ft 458 kts 328°
2026-04-20 15:34 38.29677 -122.20075 26606 ft 460 kts 328°
2026-04-20 15:34 38.32626 -122.21706 27066 ft 462 kts 329°
2026-04-20 15:34 38.35725 -122.23017 27502 ft 474 kts 339°
2026-04-20 15:34 38.39008 -122.23757 27925 ft 483 kts 347°
2026-04-20 15:35 38.42349 -122.24267 28357 ft 485 kts 346°
2026-04-20 15:35 38.45709 -122.24785 28777 ft 486 kts 346°
2026-04-20 15:35 38.49073 -122.25308 29215 ft 488 kts 346°
2026-04-20 15:35 38.52415 -122.25836 29584 ft 491 kts 346°
2026-04-20 15:36 38.55811 -122.26378 29969 ft 492 kts 346°
2026-04-20 15:36 38.59219 -122.26921 30268 ft 495 kts 346°
2026-04-20 15:36 38.62650 -122.27466 30557 ft 497 kts 346°
2026-04-20 15:36 38.66088 -122.28012 30852 ft 499 kts 346°
2026-04-20 15:37 38.68364 -122.28374 31048 ft 500 kts 346°
2026-04-20 15:37 38.71838 -122.28927 31326 ft 503 kts 346°
2026-04-20 15:37 38.75328 -122.29484 31601 ft 505 kts 346°
2026-04-20 15:37 38.78811 -122.30038 32007 ft 504 kts 346°
2026-04-20 15:38 38.82289 -122.30591 32422 ft 503 kts 346°
2026-04-20 15:38 38.85773 -122.31146 32828 ft 502 kts 346°
2026-04-20 15:38 38.89242 -122.31695 33170 ft 503 kts 346°
2026-04-20 15:38 38.92691 -122.32241 33476 ft 504 kts 346°
2026-04-20 15:39 38.96173 -122.32792 33895 ft 503 kts 346°
2026-04-20 15:39 38.99650 -122.33346 34268 ft 503 kts 346°
2026-04-20 15:39 39.03121 -122.33902 34668 ft 501 kts 346°
2026-04-20 15:39 39.06581 -122.34458 35085 ft 500 kts 346°
2026-04-20 15:40 39.10035 -122.35013 35457 ft 499 kts 346°
2026-04-20 15:40 39.13481 -122.35565 35786 ft 499 kts 346°
2026-04-20 15:40 39.16932 -122.36122 35931 ft 498 kts 346°
2026-04-20 15:41 39.23792 -122.37226 35968 ft 496 kts 346°
2026-04-20 15:41 39.30643 -122.38338 35958 ft 497 kts 346°
2026-04-20 15:42 39.37478 -122.39445 35959 ft 497 kts 346°
2026-04-20 15:42 39.44353 -122.40549 35947 ft 497 kts 346°
2026-04-20 15:43 39.51229 -122.41664 35950 ft 497 kts 346°
2026-04-20 15:43 39.58099 -122.42778 35945 ft 497 kts 346°
2026-04-20 15:44 39.64936 -122.43891 35949 ft 497 kts 346°
2026-04-20 15:44 39.71824 -122.45023 35946 ft 498 kts 346°
2026-04-20 15:45 39.78706 -122.46144 35961 ft 498 kts 346°
2026-04-20 15:45 39.85555 -122.47261 35950 ft 499 kts 346°
2026-04-20 15:46 39.92445 -122.48400 35942 ft 499 kts 346°
2026-04-20 15:46 39.99360 -122.49541 35942 ft 499 kts 346°
2026-04-20 15:47 40.06214 -122.50666 35946 ft 500 kts 346°
2026-04-20 15:47 40.13130 -122.51802 35965 ft 500 kts 346°
2026-04-20 15:48 40.20039 -122.52945 35973 ft 500 kts 346°
2026-04-20 15:48 40.26874 -122.54084 35968 ft 500 kts 346°
2026-04-20 15:49 40.33860 -122.55251 35985 ft 501 kts 345°
2026-04-20 15:49 40.40783 -122.56393 35946 ft 501 kts 346°
2026-04-20 15:50 40.47662 -122.57534 35948 ft 501 kts 346°
2026-04-20 15:50 40.54580 -122.58692 35967 ft 502 kts 346°
2026-04-20 15:51 40.61515 -122.59862 35952 ft 502 kts 346°
2026-04-20 15:51 40.68455 -122.61028 35981 ft 503 kts 346°
2026-04-20 15:52 40.75399 -122.62192 35936 ft 503 kts 346°
2026-04-20 15:52 40.82335 -122.63358 35942 ft 503 kts 346°
2026-04-20 15:53 40.92757 -122.65120 35961 ft 503 kts 346°
2026-04-20 15:53 40.99663 -122.66286 35951 ft 504 kts 346°
2026-04-20 15:54 41.06615 -122.67470 35935 ft 504 kts 346°
2026-04-20 15:54 41.13570 -122.68660 35946 ft 504 kts 346°
2026-04-20 15:55 41.20528 -122.69851 35952 ft 503 kts 346°
2026-04-20 15:55 41.27490 -122.71036 35939 ft 504 kts 346°
2026-04-20 15:56 41.34418 -122.72222 35909 ft 505 kts 346°
2026-04-20 15:56 41.41403 -122.73417 35852 ft 506 kts 346°
2026-04-20 15:57 41.48413 -122.74622 35920 ft 508 kts 346°
2026-04-20 15:57 41.55388 -122.75818 35891 ft 508 kts 346°
2026-04-20 15:58 41.62407 -122.77032 35929 ft 508 kts 346°
2026-04-20 15:58 41.69436 -122.78259 35893 ft 510 kts 346°
2026-04-20 15:59 41.76477 -122.79477 35833 ft 510 kts 346°
2026-04-20 15:59 41.83515 -122.80704 35868 ft 511 kts 346°
2026-04-20 16:00 41.90523 -122.81934 35853 ft 510 kts 346°
2026-04-20 16:00 41.97562 -122.83155 35847 ft 510 kts 346°
2026-04-20 16:01 42.04604 -122.84383 35860 ft 510 kts 346°
2026-04-20 16:01 42.11658 -122.85624 35840 ft 511 kts 346°
2026-04-20 16:02 42.18702 -122.86870 35813 ft 511 kts 345°
2026-04-20 16:02 42.25765 -122.88124 35886 ft 511 kts 345°
2026-04-20 16:03 42.32823 -122.89360 35883 ft 512 kts 346°
2026-04-20 16:03 42.39886 -122.90595 35915 ft 512 kts 345°
2026-04-20 16:04 42.46960 -122.91857 35886 ft 513 kts 345°
2026-04-20 16:04 42.54048 -122.93121 35857 ft 514 kts 345°
2026-04-20 16:05 42.61095 -122.94376 35867 ft 514 kts 345°
2026-04-20 16:05 42.68201 -122.95648 35838 ft 515 kts 345°
2026-04-20 16:06 42.75331 -122.96928 35821 ft 515 kts 345°
2026-04-20 16:06 42.82468 -122.98210 35151 ft 523 kts 344°
2026-04-20 16:07 42.86124 -122.98881 34094 ft 535 kts 344°
2026-04-20 16:07 42.89796 -122.99556 33027 ft 542 kts 345°
2026-04-20 16:07 42.93529 -123.00227 31920 ft 539 kts 346°
2026-04-20 16:07 42.97235 -123.00881 30861 ft 534 kts 346°
2026-04-20 16:08 43.00894 -123.01522 30034 ft 525 kts 347°
2026-04-20 16:08 43.04484 -123.02155 29253 ft 512 kts 348°
2026-04-20 16:08 43.07967 -123.02773 28645 ft 497 kts 348°
2026-04-20 16:08 43.11354 -123.03383 28031 ft 483 kts 348°
2026-04-20 16:09 43.14652 -123.03983 27427 ft 470 kts 349°
2026-04-20 16:09 43.17851 -123.04572 26875 ft 458 kts 349°
2026-04-20 16:09 43.20949 -123.05149 26313 ft 453 kts 350°
2026-04-20 16:09 43.24079 -123.05734 25733 ft 453 kts 351°
2026-04-20 16:10 43.27198 -123.06309 25189 ft 450 kts 351°
2026-04-20 16:10 43.30304 -123.06874 24669 ft 449 kts 351°
2026-04-20 16:10 43.33400 -123.07433 24139 ft 448 kts 352°
2026-04-20 16:10 43.36492 -123.07992 23629 ft 447 kts 352°
2026-04-20 16:11 43.39571 -123.08554 23068 ft 445 kts 352°
2026-04-20 16:11 43.42594 -123.09111 22558 ft 442 kts 352°
2026-04-20 16:11 43.45636 -123.09672 22037 ft 439 kts 352°
2026-04-20 16:11 43.48654 -123.10228 21496 ft 436 kts 353°
2026-04-20 16:12 43.51645 -123.10775 20974 ft 432 kts 352°
2026-04-20 16:12 43.54619 -123.11321 20422 ft 430 kts 352°
2026-04-20 16:12 43.57587 -123.11870 19867 ft 428 kts 352°
2026-04-20 16:12 43.60533 -123.12417 19308 ft 427 kts 353°
2026-04-20 16:13 43.63472 -123.12963 18714 ft 425 kts 353°
2026-04-20 16:13 43.66402 -123.13507 18167 ft 423 kts 352°
2026-04-20 16:13 43.69307 -123.14044 17628 ft 418 kts 353°
2026-04-20 16:13 43.72136 -123.14556 17132 ft 411 kts 355°
2026-04-20 16:14 43.74972 -123.14533 16646 ft 404 kts
2026-04-20 16:14 43.77757 -123.14362 16236 ft 397 kts
2026-04-20 16:14 43.80490 -123.14191 15826 ft 390 kts
2026-04-20 16:14 43.83187 -123.14025 15428 ft 386 kts
2026-04-20 16:15 43.85860 -123.13867 15033 ft 383 kts
2026-04-20 16:15 43.88410 -123.13718 14655 ft 381 kts
2026-04-20 16:15 43.91051 -123.13575 14272 ft 379 kts
2026-04-20 16:15 43.93681 -123.13431 13889 ft 377 kts
2026-04-20 16:16 43.96300 -123.13289 13495 ft 375 kts
2026-04-20 16:16 43.98905 -123.13143 13045 ft 374 kts
2026-04-20 16:16 44.01463 -123.12984 12640 ft 372 kts
2026-04-20 16:16 44.04050 -123.12818 12225 ft 369 kts
2026-04-20 16:17 44.06614 -123.12644 11819 ft 367 kts
2026-04-20 16:17 44.09157 -123.12465 11421 ft 365 kts
2026-04-20 16:17 44.11694 -123.12275 11021 ft 363 kts
2026-04-20 16:17 44.14213 -123.12074 10629 ft 361 kts
2026-04-20 16:18 44.16715 -123.11865 10222 ft 358 kts
2026-04-20 16:18 44.19152 -123.11652 9824 ft 353 kts
2026-04-20 16:18 44.21574 -123.11429 9439 ft 343 kts
2026-04-20 16:18 44.23928 -123.11212 9049 ft 335 kts
2026-04-20 16:19 44.26234 -123.11006 8659 ft 326 kts
2026-04-20 16:19 44.28466 -123.10824 8256 ft 316 kts
2026-04-20 16:19 44.30637 -123.10649 7835 ft 311 kts
2026-04-20 16:19 44.32749 -123.10472 7447 ft 302 kts
2026-04-20 16:20 44.34824 -123.10301 7052 ft 294 kts
2026-04-20 16:20 44.36857 -123.10139 6561 ft 292 kts
2026-04-20 16:20 44.38876 -123.09985 6044 ft 289 kts
2026-04-20 16:20 44.40869 -123.09896 5574 ft 285 kts 357°
2026-04-20 16:21 44.42737 -123.10706 5216 ft 284 kts 328°
2026-04-20 16:21 44.44118 -123.12612 4952 ft 278 kts 298°
2026-04-20 16:21 44.44695 -123.15129 4709 ft 271 kts 270°
2026-04-20 16:21 44.44656 -123.17742 4587 ft 266 kts 253°
2026-04-20 16:22 44.43911 -123.20044 4483 ft 258 kts 227°
2026-04-20 16:22 44.42580 -123.21633 4381 ft 249 kts 203°
2026-04-20 16:22 44.40969 -123.22301 4280 ft 243 kts 181°
2026-04-20 16:22 44.39279 -123.22299 4182 ft 243 kts 176°
2026-04-20 16:23 44.37586 -123.22274 4068 ft 243 kts 176°
2026-04-20 16:23 44.35892 -123.22251 4013 ft 242 kts 177°
2026-04-20 16:23 44.34233 -123.22227 4013 ft 236 kts 177°
2026-04-20 16:23 44.32595 -123.22202 3983 ft 235 kts 176°
2026-04-20 16:24 44.30968 -123.22178 3764 ft 230 kts 177°
2026-04-20 16:24 44.29389 -123.22155 3479 ft 225 kts 176°
2026-04-20 16:24 44.28358 -123.22139 3287 ft 222 kts 176°
2026-04-20 16:24 44.26825 -123.22116 2996 ft 219 kts 177°
2026-04-20 16:25 44.24841 -123.22086 2609 ft 209 kts 178°
2026-04-20 16:25 44.23442 -123.22065 2360 ft 193 kts 178°
2026-04-20 16:25 44.22154 -123.22046 2089 ft 176 kts 179°
2026-04-20 16:25 44.21018 -123.22029 1866 ft 151 kts 179°
2026-04-20 16:26 44.20350 -123.22018 1729 ft 139 kts 180°
2026-04-20 16:26 44.19413 -123.22004 1543 ft 132 kts 180°
2026-04-20 16:26 44.18505 -123.21990 1369 ft 130 kts 180°
2026-04-20 16:26 44.17609 -123.21978 1203 ft 129 kts 180°
2026-04-20 16:27 44.16713 -123.21966 1032 ft 129 kts 180°
2026-04-20 16:27 44.15818 -123.21958 852 ft 129 kts 179°
2026-04-20 16:27 44.14924 -123.21936 671 ft 128 kts 179°
2026-04-20 16:27 44.14032 -123.21921 488 ft 128 kts 179°
2026-04-20 16:28 44.13155 -123.21911 367 ft 118 kts 179°
2026-04-20 16:28 44.12461 -123.21899 358 ft 77 kts 179°
2026-04-20 16:28 44.12099 -123.21894 358 ft 34 kts 179°
2026-04-20 16:28 44.12023 -123.21788 358 ft 16 kts 91°
2026-04-20 16:29 44.12022 -123.21754 357 ft 0 kts 91°
2026-04-20 16:29 44.12022 -123.21730 357 ft 5 kts 91°
2026-04-20 16:29 44.12005 -123.21702 361 ft 4 kts 158°
2026-04-20 16:29 44.11970 -123.21701 358 ft 6 kts 179°
2026-04-20 16:30 44.11954 -123.21652 359 ft 7 kts 83°
2026-04-20 16:30 44.11949 -123.21582 360 ft 7 kts 120°
2026-04-20 16:30 44.11901 -123.21559 364 ft 8 kts 160°
2026-04-20 16:30 44.11883 -123.21496 363 ft 7 kts 52°
2026-04-20 16:31 44.11908 -123.21452 367 ft 6 kts 51°
2026-04-20 16:31 44.11922 -123.21428 367 ft 2 kts 51°
2026-04-20 16:31 44.11926 -123.21421 366 ft 0 kts 51°